[[{"header":{"parameterUnit":"m.s-1","parameterCategory":2,"la1":30.2991,"la2":30.254,"lo1":-89.0895,"lo2":-89.0444,"dy":0.0017,"dx":0.0017,"nx":28,"ny":28,"refTime":"2024-04-03T21:00:00:Z","depth":"0","parameterNumber":2,"parameterNumberName":"U-component_of_CURRENTS"},"data":[0,0,0,0,0,0,0,0,0,0,0,0,0,0,0,0,0,0,0,0,0,0,0,0,0,0,0,0,0,0,0,0,0,0,0,0,0,0,0,0,0,0,0,0,0,0,0,0,0,0,0,0,0,0,0,0,0,0,-0.2972,-0.2973,0,-0.3044,-0.3045,-0.3045,-0.3025,-0.3024,-0.3023,-0.3022,-0.3047,-0.3049,-0.3051,0,0,0,0,0,0,0,0,0,0,0,0,0,-0.284,-0.2842,-0.2971,-0.2973,-0.2974,-0.3044,-0.3045,-0.3045,-0.3025,-0.3024,-0.3023,-0.3021,-0.3047,-0.3049,-0.3051,0,0,0,0,0,0,0,0,0,0,0,0,0,-0.2901,-0.2843,-0.2971,-0.2975,-0.2976,-0.3044,-0.3045,-0.3046,-0.3026,-0.3024,-0.3022,-0.3021,-0.3046,-0.3049,-0.3051,-0.3104,0,0,-0.306,-0.3061,0,0,0,0,0,0,0,0,-0.2897,-0.2905,-0.2973,-0.2974,-0.2976,-0.3026,-0.3008,-0.3064,-0.3026,-0.3004,-0.3022,-0.302,-0.3039,-0.3043,-0.3057,-0.3105,-0.3106,-0.306,-0.3062,-0.3063,-0.3064,0,0,0,0,0,0,0,-0.2893,-0.2902,-0.2997,-0.2974,-0.2976,-0.2981,-0.2987,-0.3019,-0.3027,-0.3005,-0.3005,-0.3018,-0.3039,-0.3054,-0.3057,-0.3107,-0.306,-0.3062,-0.3064,-0.3065,-0.3199,-0.3201,0,0,0,0,0,0,-0.2891,-0.2898,-0.2995,-0.3,-0.2935,-0.2985,-0.2992,-0.301,-0.3028,-0.3031,-0.302,-0.3017,-0.305,-0.3054,-0.3058,-0.3126,-0.3063,-0.3065,-0.3067,-0.3197,-0.32,-0.3202,0,0,0,0,0,0,-0.2888,-0.2899,-0.2992,-0.2952,-0.2965,-0.2989,-0.301,-0.3012,-0.3021,-0.304,-0.304,-0.3026,-0.3049,-0.3054,-0.3091,-0.3127,-0.3066,-0.3069,-0.3195,-0.3198,-0.3201,-0.326,0,0,0,0,0,0,-0.2884,-0.2898,-0.2904,-0.2953,-0.2967,-0.3032,-0.3012,-0.3015,-0.3034,-0.3031,-0.3046,-0.3047,-0.3048,-0.3088,-0.3094,-0.3129,-0.3071,-0.3192,-0.3196,-0.32,-0.3256,-0.3265,-0.3273,0,0,0,0,0,-0.2879,-0.2896,-0.2904,-0.2915,-0.2977,-0.3034,-0.3041,-0.305,-0.3036,-0.3049,-0.3062,-0.3046,-0.3115,-0.3092,-0.3099,-0.3135,-0.3191,-0.3195,-0.3199,-0.3252,-0.3263,-0.3272,0,0,0,0,0,0,-0.2836,-0.2898,-0.2907,-0.2939,-0.2983,-0.3031,-0.3041,-0.3055,-0.3077,-0.3068,-0.3074,-0.3078,-0.3123,-0.3126,-0.31,-0.3186,-0.315,-0.3156,-0.3187,-0.3198,-0.3206,-0.3183,-0.3073,0,0,0,0,0,-0.2834,-0.2861,-0.2923,-0.2945,-0.2968,-0.3006,-0.3026,-0.3042,-0.3073,-0.3079,-0.3095,-0.3116,-0.3152,-0.3168,-0.3193,-0.3246,-0.3214,-0.3274,-0.3282,-0.3289,-0.3276,-0.329,-0.3297,-0.3216,-0.3216,-0.3216,0,0,-0.282,-0.2859,-0.2872,-0.2938,-0.2966,-0.3019,-0.3012,-0.3051,-0.3094,-0.3082,-0.313,-0.3144,-0.3171,-0.3226,-0.3247,-0.323,-0.3291,-0.3295,-0.33,-0.3283,-0.3295,-0.3303,-0.3309,-0.3219,-0.3219,-0.3218,0,0,-0.2819,-0.2845,-0.2873,-0.2921,-0.2979,-0.3017,-0.3031,-0.3088,-0.3107,-0.3167,-0.3169,-0.3203,-0.3257,-0.3285,-0.3307,-0.338,-0.3332,-0.339,-0.3418,-0.3433,-0.3439,-0.3444,-0.3383,-0.3383,-0.3397,-0.3397,-0.3398,0,-0.28,-0.2848,-0.2888,-0.2938,-0.2976,-0.3019,-0.3066,-0.3112,-0.3174,-0.3197,-0.3185,-0.3268,-0.3287,-0.3361,-0.3382,-0.3398,-0.3367,-0.3378,-0.3441,-0.3446,-0.345,-0.3387,-0.3386,-0.3401,-0.34,-0.34,-0.34,0,-0.2829,-0.2872,-0.2893,-0.2973,-0.3022,-0.3066,-0.3145,-0.319,-0.3217,-0.3257,-0.3321,-0.3351,-0.3391,-0.3419,-0.3422,-0.3476,-0.3428,-0.3446,-0.341,-0.3461,-0.3392,-0.3389,-0.3406,-0.3404,-0.3403,-0.3403,0,0,-0.2769,-0.289,-0.2894,-0.2937,-0.3042,-0.3084,-0.3171,-0.3255,-0.3299,-0.3354,-0.3396,-0.3472,-0.3466,-0.3488,-0.3504,-0.3521,-0.3519,-0.3493,-0.3492,-0.3419,-0.3489,-0.3368,-0.3352,-0.3549,-0.3549,-0.355,-0.3416,0,-0.2774,-0.286,-0.2925,-0.3007,-0.3059,-0.314,-0.3216,-0.3298,-0.3357,-0.3411,-0.3452,-0.3494,-0.3504,-0.3511,-0.3538,-0.3529,-0.3519,-0.3549,-0.346,-0.3455,-0.3333,-0.3349,-0.3168,-0.3027,-0.3413,-0.3413,-0.3412,0,-0.2777,-0.2836,-0.2912,-0.3029,-0.3056,-0.3114,-0.3225,-0.3298,-0.34,-0.3435,-0.3489,-0.3515,-0.3553,-0.3544,-0.3545,-0.356,-0.3517,-0.3502,-0.3497,-0.3359,-0.3331,-0.3046,-0.3007,-0.2971,-0.3407,-0.3408,-0.3408,0,-0.2702,-0.2824,-0.2876,-0.2919,-0.306,-0.3102,-0.3171,-0.3291,-0.3347,-0.3432,-0.346,-0.352,-0.3525,-0.3522,-0.3498,-0.3516,-0.3463,-0.3489,-0.3331,-0.3319,-0.3131,-0.3102,-0.3034,-0.3466,-0.3466,-0.3466,-0.3467,0,-0.2679,-0.2717,-0.2843,-0.287,-0.2929,-0.3047,-0.311,-0.3195,-0.33,-0.3339,-0.3443,-0.3466,-0.3522,-0.3513,-0.3484,-0.3379,-0.345,-0.3311,-0.3285,-0.3143,-0.3119,-0.3052,-0.3105,-0.3461,-0.3462,-0.3463,-0.3464,0,-0.2581,-0.267,-0.2731,-0.286,-0.2893,-0.2927,-0.3051,-0.3098,-0.3216,-0.3264,-0.3282,-0.3407,-0.3386,-0.341,-0.3382,-0.3334,-0.3193,-0.3207,-0.2997,-0.2949,-0.2762,-0.2825,-0.2748,-0.2667,-0.2995,-0.2992,-0.2989,0,-0.2539,-0.2561,-0.2676,-0.2694,-0.2743,-0.2813,-0.2857,-0.3013,-0.3064,-0.3208,-0.3209,-0.3253,-0.3226,-0.3151,-0.3068,-0.2956,-0.3026,-0.2756,-0.2775,-0.2703,-0.2757,-0.2831,-0.2776,-0.2532,-0.2525,-0.252,-0.2515,0,-0.244,-0.2476,-0.2516,-0.2554,-0.2597,-0.2646,-0.2722,-0.276,-0.2921,-0.2974,-0.3012,-0.3007,-0.2946,-0.2778,-0.2678,-0.2607,-0.2677,-0.264,-0.2639,-0.2438,-0.2442,-0.2366,-0.2636,-0.2467,-0.2472,-0.2476,-0.2478,-0.248,-0.2337,-0.2334,-0.2377,-0.2394,-0.2436,-0.2446,-0.2423,-0.2521,-0.2563,-0.2606,-0.2726,-0.268,-0.2601,-0.242,-0.2324,-0.213,-0.229,-0.2088,-0.2177,-0.2263,-0.2176,-0.2305,-0.2082,-0.2084,-0.2086,-0.2088,-0.209,0,-0.2208,-0.2208,-0.2212,-0.2227,-0.2189,-0.2266,-0.2299,-0.2247,-0.2217,-0.2318,-0.2315,-0.2289,-0.2086,-0.2033,-0.1832,-0.1716,-0.1688,-0.1711,-0.1781,-0.1752,-0.1888,-0.1855,-0.1483,-0.1484,-0.1484,-0.1484,-0.1484,-0.1484,-0.2142,-0.2094,-0.2091,-0.1972,-0.1962,-0.1853,-0.1823,-0.1779,-0.1808,-0.1776,-0.1824,-0.1917,-0.1874,-0.1925,-0.1695,-0.1575,-0.1573,-0.1507,-0.1603,-0.1713,-0.1756,-0.1797,-0.1776,-0.1394,-0.1394,-0.1348,-0.1348,-0.1348]},{"header":{"parameterUnit":"m.s-1","parameterCategory":2,"la1":30.2991,"la2":30.254,"lo1":-89.0895,"lo2":-89.0444,"dy":0.0017,"dx":0.0017,"nx":28,"ny":28,"refTime":"2024-04-03T21:00:00:Z","depth":"0","parameterNumber":3,"parameterNumberName":"V-component_of_CURRENTS"},"data":[0,0,0,0,0,0,0,0,0,0,0,0,0,0,0,0,0,0,0,0,0,0,0,0,0,0,0,0,0,0,0,0,0,0,0,0,0,0,0,0,0,0,0,0,0,0,0,0,0,0,0,0,0,0,0,0,0,0,-0.0219,-0.0218,0,-0.0107,-0.0106,-0.0105,-0.0021,-0.002,-0.0019,-0.0019,0.0144,0.0148,0.0152,0,0,0,0,0,0,0,0,0,0,0,0,0,-0.0309,-0.0308,-0.0219,-0.0217,-0.0216,-0.0107,-0.0106,-0.0104,-0.0021,-0.002,-0.0019,-0.0019,0.0143,0.0147,0.0152,0,0,0,0,0,0,0,0,0,0,0,0,0,-0.024,-0.0308,-0.0219,-0.0162,-0.0156,-0.0108,-0.0106,-0.0104,-0.0021,-0.002,-0.0019,-0.0018,0.0142,0.0147,0.0153,0.0167,0,0,0.017,0.0172,0,0,0,0,0,0,0,0,-0.0244,-0.0237,-0.0172,-0.0166,-0.0159,-0.0078,-0.0078,-0.0011,-0.0021,-0.0071,-0.0019,-0.0018,0.0073,0.0085,0.0104,0.0175,0.0182,0.017,0.0174,0.0176,0.0177,0,0,0,0,0,0,0,-0.0249,-0.0241,-0.0174,-0.0171,-0.0163,-0.0125,-0.0115,-0.0065,-0.0004,-0.0067,-0.0061,-0.005,0.0078,0.0098,0.0109,0.0184,0.017,0.0175,0.0178,0.0181,0.0283,0.0283,0,0,0,0,0,0,-0.0269,-0.0246,-0.0177,-0.017,-0.0201,-0.0125,-0.0113,-0.0104,-0.0006,0.001,-0.0051,-0.0047,0.0088,0.0102,0.0115,0.013,0.0176,0.0181,0.0184,0.0284,0.0283,0.0282,0,0,0,0,0,0,-0.0271,-0.0264,-0.0182,-0.0206,-0.0193,-0.0125,-0.0115,-0.0102,-0.008,0.0005,0.0022,-0.0042,0.009,0.0107,0.0152,0.0137,0.0184,0.0189,0.0284,0.0284,0.0283,0.0165,0,0,0,0,0,0,-0.0274,-0.0265,-0.027,-0.0208,-0.0193,-0.0165,-0.0116,-0.0101,-0.0076,-0.0069,0.0019,0.0035,0.0092,0.0143,0.0158,0.0146,0.0193,0.0285,0.0284,0.0283,0.017,0.0161,0.0153,0,0,0,0,0,-0.0278,-0.0289,-0.0271,-0.0262,-0.0199,-0.0166,-0.0156,-0.0102,-0.0077,-0.0077,-0.0016,0.0032,0.0147,0.0147,0.0165,0.0154,0.0286,0.0284,0.0283,0.0174,0.0162,0.0153,0,0,0,0,0,0,-0.033,-0.028,-0.0258,-0.0254,-0.0219,-0.0153,-0.0148,-0.0112,-0.0064,-0.0057,0.0026,0.0046,0.0078,0.0132,0.0131,0.018,0.0224,0.0225,0.0135,0.0125,0.0116,0.0106,0.0198,0,0,0,0,0,-0.0346,-0.0342,-0.0288,-0.0287,-0.0274,-0.0214,-0.0195,-0.016,-0.0109,-0.0087,-0.0027,0.0036,0.0085,0.0116,0.0166,0.0195,0.0259,0.0199,0.019,0.0183,0.0186,0.0265,0.0264,0.0278,0.0278,0.0278,0,0,-0.0365,-0.0339,-0.0336,-0.0298,-0.0266,-0.0265,-0.02,-0.018,-0.0175,-0.0077,-0.0055,0.0005,0.0084,0.0113,0.0133,0.0158,0.0209,0.0181,0.0173,0.0182,0.0264,0.0262,0.0261,0.0277,0.0277,0.0277,0,0,-0.0412,-0.0381,-0.0398,-0.0378,-0.0342,-0.0305,-0.0306,-0.0248,-0.0218,-0.019,-0.0121,-0.0069,0.0002,0.0059,0.0096,0.0071,0.0156,0.0083,0.0037,0.0112,0.0112,0.0113,0.0176,0.0183,0.0083,0.0083,0.0083,0,-0.044,-0.0451,-0.0399,-0.0413,-0.0409,-0.0333,-0.0356,-0.0316,-0.0252,-0.0228,-0.0201,-0.0088,-0.0023,0.0026,0.002,0.0051,0.0107,0.0067,0.0101,0.0103,0.0105,0.0171,0.018,0.0077,0.0078,0.0079,0.0079,0,-0.0496,-0.0511,-0.0521,-0.0515,-0.0504,-0.051,-0.0455,-0.0435,-0.039,-0.0338,-0.0283,-0.0192,-0.0121,-0.0096,-0.0042,0.0003,0.0039,0.0075,0.0124,0.0097,0.0167,0.0179,0.0069,0.0071,0.0073,0.0074,0,0,-0.0545,-0.056,-0.0565,-0.0591,-0.0561,-0.0561,-0.0554,-0.0519,-0.0508,-0.0432,-0.0404,-0.0313,-0.0246,-0.0198,-0.0123,-0.0051,0.0011,0.0014,0.0021,0.007,0.0174,0.0224,0.0243,0.0054,0.0056,0.0057,0.021,0,-0.0608,-0.0672,-0.0654,-0.0715,-0.0745,-0.0689,-0.0694,-0.0649,-0.0586,-0.0535,-0.0419,-0.0362,-0.029,-0.0254,-0.0173,-0.0036,0.0041,-0.0033,0.02,0.0207,0.025,0.0258,0.0329,0.0474,0.0222,0.0225,0.0226,0,-0.0669,-0.0707,-0.0782,-0.0827,-0.0834,-0.0852,-0.0839,-0.0828,-0.0728,-0.0677,-0.0584,-0.048,-0.0367,-0.0297,-0.0081,-0.0132,0.0012,0.0124,0.0133,0.0233,0.028,0.0466,0.0507,0.0747,0.0246,0.0244,0.0243,0,-0.0735,-0.0798,-0.0865,-0.0878,-0.0907,-0.0927,-0.093,-0.0867,-0.0858,-0.0747,-0.0713,-0.0564,-0.0481,-0.0296,-0.0061,-0.0068,0.0193,0.0211,0.0393,0.0398,0.0534,0.0548,0.0834,0.0379,0.0379,0.0378,0.0378,0,-0.081,-0.0865,-0.0904,-0.0942,-0.1023,-0.1005,-0.1049,-0.102,-0.0963,-0.0948,-0.0786,-0.0725,-0.0472,-0.0286,-0.0081,0.0194,0.018,0.0395,0.0448,0.0493,0.05,0.0776,0.0847,0.0384,0.0383,0.0382,0.0381,0,-0.0874,-0.0897,-0.0984,-0.1039,-0.1059,-0.1112,-0.1146,-0.1165,-0.1096,-0.1066,-0.1034,-0.0835,-0.0592,-0.0322,-0.0005,0.0167,0.0575,0.0533,0.0562,0.0615,0.0973,0.1031,0.1318,0.1469,0.0737,0.0739,0.0741,0,-0.0913,-0.0961,-0.1058,-0.1114,-0.1143,-0.1209,-0.1255,-0.1234,-0.1241,-0.1128,-0.1113,-0.0874,-0.0685,-0.0206,0.0156,0.0528,0.0711,0.0803,0.0803,0.102,0.1124,0.1146,0.1253,0.0936,0.094,0.0942,0.0945,0,-0.0984,-0.1013,-0.1086,-0.1204,-0.1277,-0.1359,-0.1408,-0.1436,-0.1394,-0.134,-0.121,-0.1043,-0.0561,-0.0095,0.0394,0.0624,0.0972,0.0868,0.111,0.1319,0.1349,0.151,0.0794,0.0969,0.0966,0.0965,0.0963,0.0962,-0.1025,-0.1097,-0.1186,-0.1296,-0.1386,-0.1478,-0.153,-0.1554,-0.1557,-0.1457,-0.1277,-0.0979,-0.0282,0.0425,0.0692,0.1282,0.1193,0.1461,0.1516,0.1521,0.1666,0.0986,0.1203,0.1202,0.1201,0.12,0.1199,0,-0.1073,-0.1152,-0.1267,-0.1402,-0.1506,-0.1529,-0.1609,-0.1626,-0.1618,-0.1462,-0.128,-0.0512,0.0165,0.0801,0.1614,0.1923,0.1997,0.2078,0.2162,0.2246,0.1689,0.17,0.2014,0.2014,0.2014,0.2013,0.2013,0.2013,-0.1102,-0.1213,-0.128,-0.1463,-0.1549,-0.1647,-0.1681,-0.1686,-0.1576,-0.1257,-0.085,-0.051,0.0466,0.1725,0.2464,0.2532,0.2807,0.2755,0.2897,0.2545,0.2492,0.2442,0.2476,0.2947,0.2948,0.3471,0.3476,0.348]}],[{"header":{"parameterUnit":"m.s-1","parameterCategory":2,"la1":30.2991,"la2":30.254,"lo1":-89.0895,"lo2":-89.0444,"dy":0.0017,"dx":0.0017,"nx":28,"ny":28,"refTime":"2024-04-03T21:00:00:Z","depth":"2","parameterNumber":2,"parameterNumberName":"U-component_of_CURRENTS"},"data":[0,0,0,0,0,0,0,0,0,0,0,0,0,0,0,0,0,0,0,0,0,0,0,0,0,0,0,0,0,0,0,0,0,0,0,0,0,0,0,0,0,0,0,0,0,0,0,0,0,0,0,0,0,0,0,0,0,0,-0.2939,-0.294,0,-0.301,-0.301,-0.3011,-0.2994,-0.2993,-0.2992,-0.2991,-0.3019,-0.3021,-0.3023,0,0,0,0,0,0,0,0,0,0,0,0,0,-0.2814,-0.2816,-0.2939,-0.294,-0.2942,-0.301,-0.301,-0.3011,-0.2995,-0.2993,-0.2992,-0.2991,-0.3019,-0.3021,-0.3023,0,0,0,0,0,0,0,0,0,0,0,0,0,-0.2872,-0.2817,-0.2939,-0.2944,-0.2945,-0.3009,-0.301,-0.3011,-0.2995,-0.2993,-0.2992,-0.299,-0.3018,-0.3021,-0.3023,-0.3072,0,0,-0.3031,-0.3033,0,0,0,0,0,0,0,0,-0.2869,-0.2876,-0.2942,-0.2944,-0.2945,-0.2994,-0.2977,-0.303,-0.2995,-0.2973,-0.2991,-0.2989,-0.301,-0.3013,-0.3027,-0.3073,-0.3075,-0.3032,-0.3033,-0.3034,-0.3035,0,0,0,0,0,0,0,-0.2865,-0.2873,-0.2964,-0.2943,-0.2945,-0.295,-0.2956,-0.2987,-0.2997,-0.2975,-0.2974,-0.2987,-0.301,-0.3024,-0.3027,-0.3075,-0.3032,-0.3034,-0.3036,-0.3037,-0.3168,-0.3169,0,0,0,0,0,0,-0.2863,-0.287,-0.2962,-0.2967,-0.2905,-0.2954,-0.2961,-0.2978,-0.2997,-0.3,-0.2989,-0.2986,-0.302,-0.3024,-0.3028,-0.3097,-0.3034,-0.3037,-0.3038,-0.3166,-0.3168,-0.317,0,0,0,0,0,0,-0.286,-0.2871,-0.2959,-0.2921,-0.2933,-0.2958,-0.2977,-0.298,-0.299,-0.3009,-0.301,-0.2996,-0.3019,-0.3024,-0.3062,-0.3097,-0.3038,-0.304,-0.3164,-0.3166,-0.3169,-0.3227,0,0,0,0,0,0,-0.2856,-0.2869,-0.2875,-0.2922,-0.2936,-0.2998,-0.2979,-0.2983,-0.3002,-0.3,-0.3016,-0.3017,-0.3018,-0.3058,-0.3064,-0.3099,-0.3042,-0.3161,-0.3165,-0.3168,-0.3223,-0.3232,-0.3239,0,0,0,0,0,-0.2851,-0.2867,-0.2875,-0.2886,-0.2945,-0.2999,-0.3007,-0.3016,-0.3004,-0.3017,-0.3031,-0.3016,-0.3085,-0.3062,-0.3069,-0.3105,-0.3159,-0.3164,-0.3168,-0.3219,-0.323,-0.3239,0,0,0,0,0,0,-0.281,-0.2869,-0.2878,-0.2909,-0.2952,-0.2997,-0.3008,-0.3021,-0.3044,-0.3036,-0.3044,-0.3048,-0.3092,-0.3095,-0.307,-0.3154,-0.3119,-0.3125,-0.3156,-0.3166,-0.3174,-0.3152,-0.3045,0,0,0,0,0,-0.2808,-0.2834,-0.2893,-0.2915,-0.2937,-0.2974,-0.2994,-0.301,-0.304,-0.3047,-0.3064,-0.3085,-0.312,-0.3137,-0.3161,-0.3213,-0.3182,-0.324,-0.3248,-0.3255,-0.3243,-0.3257,-0.3265,-0.3184,-0.3184,-0.3184,0,0,-0.2796,-0.2832,-0.2845,-0.2908,-0.2935,-0.2986,-0.298,-0.3018,-0.306,-0.3049,-0.3097,-0.3113,-0.3139,-0.3193,-0.3214,-0.3197,-0.3258,-0.3261,-0.3266,-0.325,-0.3262,-0.327,-0.3277,-0.3187,-0.3186,-0.3186,0,0,-0.2794,-0.282,-0.2847,-0.2892,-0.2949,-0.2985,-0.2998,-0.3054,-0.3074,-0.3133,-0.3136,-0.317,-0.3223,-0.3251,-0.3272,-0.3343,-0.3299,-0.3354,-0.3382,-0.3397,-0.3403,-0.3408,-0.3351,-0.335,-0.3361,-0.3361,-0.3361,0,-0.2777,-0.2822,-0.2861,-0.2908,-0.2944,-0.2988,-0.3032,-0.3077,-0.3138,-0.3162,-0.3151,-0.3234,-0.3253,-0.3324,-0.3346,-0.3361,-0.3332,-0.3342,-0.3405,-0.341,-0.3414,-0.3355,-0.3353,-0.3364,-0.3364,-0.3363,-0.3363,0,-0.2804,-0.2845,-0.2865,-0.2942,-0.2989,-0.3031,-0.3107,-0.3152,-0.318,-0.322,-0.3283,-0.3314,-0.3354,-0.3381,-0.3385,-0.3438,-0.3393,-0.341,-0.3374,-0.3425,-0.3359,-0.3357,-0.3369,-0.3368,-0.3367,-0.3366,0,0,-0.2747,-0.2861,-0.2865,-0.2907,-0.3008,-0.3048,-0.3133,-0.3214,-0.3258,-0.3313,-0.3356,-0.3431,-0.3426,-0.3449,-0.3465,-0.3483,-0.3483,-0.3456,-0.3455,-0.3386,-0.3457,-0.3336,-0.3321,-0.3512,-0.3513,-0.3513,-0.3388,0,-0.2751,-0.2832,-0.2895,-0.2973,-0.3022,-0.3101,-0.3175,-0.3255,-0.3314,-0.3367,-0.341,-0.3452,-0.3463,-0.3472,-0.3499,-0.3491,-0.3484,-0.3511,-0.3428,-0.3424,-0.3302,-0.3318,-0.3043,-0.2902,-0.3385,-0.3384,-0.3384,0,-0.2752,-0.2809,-0.2881,-0.2993,-0.3019,-0.3076,-0.3183,-0.3254,-0.3355,-0.3391,-0.3446,-0.3473,-0.3512,-0.3505,-0.3509,-0.3523,-0.3484,-0.347,-0.3466,-0.3329,-0.33,-0.2937,-0.2878,-0.3379,-0.338,-0.338,-0.338,0,-0.268,-0.2797,-0.2847,-0.2887,-0.3023,-0.3065,-0.3131,-0.3249,-0.3303,-0.3388,-0.3418,-0.3479,-0.3486,-0.3486,-0.3465,-0.3483,-0.3435,-0.3459,-0.3305,-0.3294,-0.3028,-0.2992,-0.344,-0.344,-0.3441,-0.3441,-0.3441,0,-0.2657,-0.2693,-0.2815,-0.2841,-0.2898,-0.3011,-0.3074,-0.3157,-0.326,-0.3298,-0.3403,-0.3426,-0.3485,-0.3478,-0.3452,-0.3352,-0.3422,-0.3287,-0.3262,-0.3038,-0.3006,-0.3408,-0.3406,-0.3436,-0.3437,-0.3438,-0.3439,0,-0.2563,-0.2648,-0.2707,-0.2831,-0.2864,-0.2897,-0.3017,-0.3063,-0.318,-0.3227,-0.3246,-0.337,-0.3352,-0.3378,-0.3355,-0.3308,-0.3244,-0.3188,-0.2885,-0.2827,-0.3085,-0.3088,-0.2992,-0.2986,-0.2982,-0.2978,-0.2975,0,-0.2522,-0.2544,-0.2654,-0.2672,-0.272,-0.2788,-0.2829,-0.2981,-0.3031,-0.3172,-0.3173,-0.3219,-0.3192,-0.3123,-0.3023,-0.2912,-0.3095,-0.2646,-0.2649,-0.3058,-0.3044,-0.3053,-0.3062,-0.2298,-0.229,-0.2283,-0.2277,0,-0.2426,-0.2462,-0.25,-0.2536,-0.2578,-0.2624,-0.2698,-0.2734,-0.2889,-0.294,-0.2978,-0.2971,-0.2895,-0.2673,-0.257,-0.2495,-0.2649,-0.2503,-0.3002,-0.2476,-0.24,-0.2389,-0.242,-0.2217,-0.2223,-0.2227,-0.223,-0.2233,-0.2328,-0.2324,-0.2365,-0.2381,-0.2422,-0.243,-0.2406,-0.2493,-0.2529,-0.2544,-0.2669,-0.256,-0.2539,-0.2216,-0.2091,-0.2001,-0.2201,-0.2142,-0.2165,-0.2194,-0.2158,-0.2082,-0.1826,-0.183,-0.1833,-0.1836,-0.1838,0,-0.22,-0.2202,-0.2205,-0.2218,-0.2177,-0.2255,-0.2285,-0.2221,-0.2178,-0.2209,-0.2181,-0.1936,-0.1763,-0.1768,-0.1485,-0.1444,-0.1442,-0.1436,-0.1435,-0.1494,-0.1547,-0.1482,-0.0968,-0.0966,-0.0964,-0.0962,0,0,-0.2135,-0.2086,-0.2081,-0.1964,-0.1955,-0.1846,-0.1815,-0.1749,-0.1723,-0.1609,-0.1541,-0.1631,-0.1676,-0.1318,-0.1233,-0.1052,-0.1271,-0.0995,-0.1683,-0.1737,-0.1788,-0.193,-0.1893,0,0,0,0,0]},{"header":{"parameterUnit":"m.s-1","parameterCategory":2,"la1":30.2991,"la2":30.254,"lo1":-89.0895,"lo2":-89.0444,"dy":0.0017,"dx":0.0017,"nx":28,"ny":28,"refTime":"2024-04-03T21:00:00:Z","depth":"2","parameterNumber":3,"parameterNumberName":"V-component_of_CURRENTS"},"data":[0,0,0,0,0,0,0,0,0,0,0,0,0,0,0,0,0,0,0,0,0,0,0,0,0,0,0,0,0,0,0,0,0,0,0,0,0,0,0,0,0,0,0,0,0,0,0,0,0,0,0,0,0,0,0,0,0,0,-0.0154,-0.0153,0,-0.0046,-0.0044,-0.0043,0.0038,0.0038,0.0039,0.004,0.0199,0.0202,0.0206,0,0,0,0,0,0,0,0,0,0,0,0,0,-0.0241,-0.024,-0.0154,-0.0153,-0.0151,-0.0046,-0.0044,-0.0043,0.0038,0.0038,0.0039,0.004,0.0197,0.0202,0.0206,0,0,0,0,0,0,0,0,0,0,0,0,0,-0.0174,-0.024,-0.0154,-0.0099,-0.0094,-0.0046,-0.0044,-0.0042,0.0038,0.0038,0.0039,0.004,0.0196,0.0201,0.0207,0.0222,0,0,0.0223,0.0226,0,0,0,0,0,0,0,0,-0.0178,-0.0171,-0.0109,-0.0103,-0.0096,-0.0017,-0.0017,0.0048,0.0037,-0.0011,0.004,0.0041,0.013,0.0141,0.016,0.0229,0.0236,0.0224,0.0227,0.023,0.0231,0,0,0,0,0,0,0,-0.0183,-0.0175,-0.011,-0.0108,-0.01,-0.0063,-0.0053,-0.0004,0.0055,-0.0007,-0.0001,0.0009,0.0134,0.0154,0.0164,0.0239,0.0224,0.0229,0.0232,0.0234,0.0335,0.0334,0,0,0,0,0,0,-0.0202,-0.018,-0.0113,-0.0107,-0.0137,-0.0063,-0.0051,-0.0043,0.0053,0.0068,0.0008,0.0012,0.0144,0.0158,0.017,0.0185,0.023,0.0235,0.0238,0.0335,0.0335,0.0334,0,0,0,0,0,0,-0.0205,-0.0198,-0.0118,-0.0141,-0.0129,-0.0063,-0.0054,-0.0041,-0.002,0.0064,0.008,0.0016,0.0146,0.0163,0.0207,0.0192,0.0237,0.0242,0.0336,0.0335,0.0334,0.022,0,0,0,0,0,0,-0.0208,-0.0199,-0.0203,-0.0143,-0.0128,-0.0102,-0.0054,-0.004,-0.0016,-0.0009,0.0076,0.0092,0.0148,0.0198,0.0212,0.02,0.0246,0.0337,0.0336,0.0335,0.0224,0.0215,0.0207,0,0,0,0,0,-0.0211,-0.0223,-0.0204,-0.0196,-0.0135,-0.0103,-0.0093,-0.0041,-0.0017,-0.0017,0.0042,0.0089,0.0201,0.0202,0.0219,0.0208,0.0337,0.0336,0.0335,0.0228,0.0217,0.0207,0,0,0,0,0,0,-0.0262,-0.0214,-0.0192,-0.0188,-0.0155,-0.009,-0.0086,-0.0051,-0.0005,0.0003,0.0083,0.0103,0.0134,0.0186,0.0185,0.0234,0.0276,0.0278,0.019,0.018,0.0171,0.0161,0.0251,0,0,0,0,0,-0.0277,-0.0274,-0.0221,-0.0221,-0.0208,-0.015,-0.0131,-0.0098,-0.0048,-0.0026,0.0032,0.0093,0.0141,0.0171,0.022,0.0249,0.0311,0.0253,0.0244,0.0236,0.024,0.0317,0.0316,0.0329,0.0329,0.0329,0,0,-0.0296,-0.0271,-0.0268,-0.0232,-0.0201,-0.0199,-0.0136,-0.0117,-0.0112,-0.0017,0.0005,0.0063,0.014,0.0169,0.0188,0.0212,0.0262,0.0235,0.0227,0.0235,0.0315,0.0314,0.0313,0.0328,0.0329,0.0329,0,0,-0.0342,-0.0313,-0.0329,-0.0309,-0.0274,-0.0239,-0.024,-0.0184,-0.0155,-0.0128,-0.006,-0.001,0.006,0.0115,0.0152,0.0127,0.021,0.0139,0.0094,0.0168,0.0167,0.0168,0.0229,0.0237,0.0139,0.0139,0.0139,0,-0.0369,-0.038,-0.0329,-0.0343,-0.0339,-0.0266,-0.0289,-0.0249,-0.0187,-0.0164,-0.0138,-0.0029,0.0035,0.0083,0.0077,0.0108,0.0162,0.0123,0.0156,0.0158,0.0161,0.0224,0.0233,0.0133,0.0134,0.0135,0.0135,0,-0.0423,-0.0438,-0.0447,-0.0442,-0.0431,-0.0437,-0.0384,-0.0365,-0.0322,-0.0271,-0.0218,-0.0129,-0.006,-0.0037,0.0016,0.0061,0.0096,0.013,0.0179,0.0152,0.0221,0.0232,0.0125,0.0127,0.0129,0.013,0,0,-0.0472,-0.0485,-0.049,-0.0516,-0.0486,-0.0486,-0.048,-0.0446,-0.0436,-0.0363,-0.0335,-0.0247,-0.0183,-0.0136,-0.0062,0.0008,0.0069,0.0072,0.0078,0.0126,0.0227,0.0273,0.0291,0.011,0.0112,0.0114,0.0262,0,-0.0533,-0.0594,-0.0577,-0.0635,-0.0664,-0.061,-0.0616,-0.0572,-0.0511,-0.0462,-0.035,-0.0295,-0.0225,-0.019,-0.0112,0.0022,0.0097,0.0025,0.0253,0.026,0.0299,0.0305,0.0239,0.0368,0.0274,0.0276,0.0278,0,-0.0592,-0.0629,-0.0701,-0.0744,-0.0751,-0.0768,-0.0757,-0.0746,-0.0649,-0.06,-0.051,-0.041,-0.03,-0.0233,-0.0022,-0.0072,0.0069,0.0178,0.0187,0.0282,0.0328,0.0385,0.0394,0.0298,0.0297,0.0295,0.0294,0,-0.0658,-0.0717,-0.0782,-0.0795,-0.0822,-0.0842,-0.0845,-0.0785,-0.0776,-0.0669,-0.0637,-0.0492,-0.0412,-0.0232,-0.0003,-0.001,0.0245,0.0263,0.0438,0.0442,0.0459,0.0462,0.0427,0.0427,0.0426,0.0426,0.0426,0,-0.073,-0.0783,-0.082,-0.0858,-0.0937,-0.0919,-0.0962,-0.0935,-0.088,-0.0865,-0.0708,-0.0649,-0.0403,-0.0222,-0.0022,0.0244,0.0232,0.0439,0.049,0.0416,0.0413,0.0414,0.041,0.0432,0.043,0.0429,0.0428,0,-0.0793,-0.0815,-0.0899,-0.0952,-0.0972,-0.1024,-0.1058,-0.1076,-0.101,-0.0981,-0.095,-0.0757,-0.0521,-0.0259,0.005,0.0217,0.0467,0.0572,0.0464,0.05,0.0615,0.0604,0.0762,0.0765,0.0768,0.077,0.0772,0,-0.0832,-0.0878,-0.0973,-0.1027,-0.1056,-0.1121,-0.1166,-0.1145,-0.1151,-0.1041,-0.1027,-0.0795,-0.061,-0.0146,0.0178,0.0533,0.0558,0.0689,0.067,0.0619,0.0653,0.0638,0.0624,0.0641,0.0641,0.0642,0.0642,0,-0.0901,-0.093,-0.1001,-0.1116,-0.1187,-0.1267,-0.1315,-0.1341,-0.1299,-0.1245,-0.1117,-0.0955,-0.0513,-0.0134,0.0329,0.0526,0.0618,0.0711,0.0705,0.0564,0.0517,0.0546,0.0534,0.0646,0.0646,0.0645,0.0645,0.0645,-0.0942,-0.1012,-0.1099,-0.1207,-0.1295,-0.1383,-0.1433,-0.1444,-0.1444,-0.1318,-0.1167,-0.0874,-0.0516,0.0141,0.0441,0.0711,0.0714,0.0793,0.0787,0.0781,0.0738,0.0698,0.0853,0.0854,0.0854,0.0855,0.0855,0,-0.0984,-0.1066,-0.1178,-0.131,-0.1406,-0.1435,-0.1511,-0.15,-0.1474,-0.1301,-0.1112,-0.0683,-0.0255,0.0121,0.0543,0.0804,0.0762,0.0848,0.074,0.0734,0.0729,0.0679,0.0782,0.0783,0.0783,0.0784,0,0,-0.1011,-0.1117,-0.1182,-0.1358,-0.1448,-0.153,-0.1562,-0.1515,-0.1387,-0.1194,-0.0968,-0.0634,-0.0211,0.0092,0.0396,0.0604,0.0604,0.0617,0.0646,0.0475,0.0468,0.0665,0.0579,0,0,0,0,0]}],[{"header":{"parameterUnit":"m.s-1","parameterCategory":2,"la1":30.2991,"la2":30.254,"lo1":-89.0895,"lo2":-89.0444,"dy":0.0017,"dx":0.0017,"nx":28,"ny":28,"refTime":"2024-04-03T21:00:00:Z","depth":"4","parameterNumber":2,"parameterNumberName":"U-component_of_CURRENTS"},"data":[0,0,0,0,0,0,0,0,0,0,0,0,0,0,0,0,0,0,0,0,0,0,0,0,0,0,0,0,0,0,0,0,0,0,0,0,0,0,0,0,0,0,0,0,0,0,0,0,0,0,0,0,0,0,0,0,0,0,-0.2012,-0.2014,0,-0.2118,-0.2119,-0.212,-0.2179,-0.2179,-0.2179,-0.2179,-0.2299,-0.2302,-0.2305,0,0,0,0,0,0,0,0,0,0,0,0,0,-0.1877,-0.1879,-0.2012,-0.2014,-0.2015,-0.2118,-0.2119,-0.212,-0.2178,-0.2179,-0.2179,-0.218,-0.2298,-0.2301,-0.2305,0,0,0,0,0,0,0,0,0,0,0,0,0,-0.1953,-0.188,-0.2012,-0.2058,-0.2063,-0.2117,-0.2119,-0.212,-0.2178,-0.2179,-0.2179,-0.218,-0.2297,-0.2301,-0.2305,-0.2323,0,0,-0.2319,-0.232,0,0,0,0,0,0,0,0,-0.1949,-0.1958,-0.205,-0.2055,-0.2061,-0.2137,-0.2115,-0.2189,-0.2178,-0.2133,-0.2179,-0.218,-0.2247,-0.2255,-0.2272,-0.2328,-0.2333,-0.2319,-0.2322,-0.2323,-0.2325,0,0,0,0,0,0,0,-0.1943,-0.1954,-0.2052,-0.2051,-0.2058,-0.2079,-0.2089,-0.2129,-0.2185,-0.2137,-0.2142,-0.2156,-0.225,-0.2267,-0.2275,-0.2335,-0.2319,-0.2323,-0.2325,-0.2327,-0.2519,-0.2521,0,0,0,0,0,0,-0.1932,-0.1949,-0.2049,-0.2056,-0.2006,-0.2081,-0.2093,-0.2111,-0.2184,-0.2196,-0.2155,-0.2158,-0.226,-0.227,-0.2279,-0.2404,-0.2323,-0.2327,-0.233,-0.2517,-0.252,-0.2522,0,0,0,0,0,0,-0.1929,-0.194,-0.2045,-0.2005,-0.202,-0.2082,-0.2102,-0.2112,-0.2166,-0.2199,-0.2211,-0.2202,-0.226,-0.2273,-0.2353,-0.2405,-0.2329,-0.2333,-0.2514,-0.2517,-0.2521,-0.2589,0,0,0,0,0,0,-0.1925,-0.1939,-0.1964,-0.2005,-0.2022,-0.2099,-0.2102,-0.2114,-0.2172,-0.2178,-0.2242,-0.2251,-0.2262,-0.2346,-0.2357,-0.241,-0.2337,-0.251,-0.2515,-0.252,-0.2584,-0.2595,-0.2604,0,0,0,0,0,-0.192,-0.1945,-0.1964,-0.1978,-0.205,-0.2101,-0.2113,-0.2156,-0.2174,-0.2204,-0.2254,-0.2251,-0.2384,-0.2352,-0.2364,-0.2419,-0.2508,-0.2514,-0.2519,-0.2579,-0.2593,-0.2604,0,0,0,0,0,0,-0.19,-0.1955,-0.1977,-0.2019,-0.2068,-0.2112,-0.2147,-0.2177,-0.224,-0.2257,-0.2284,-0.2298,-0.2386,-0.2395,-0.236,-0.2489,-0.2445,-0.2454,-0.2487,-0.25,-0.251,-0.2489,-0.234,0,0,0,0,0,-0.1907,-0.1943,-0.1995,-0.2033,-0.2059,-0.2111,-0.2144,-0.2177,-0.2229,-0.2259,-0.2307,-0.236,-0.2413,-0.245,-0.2493,-0.2566,-0.2538,-0.261,-0.262,-0.2628,-0.2621,-0.264,-0.265,-0.2541,-0.2541,-0.2541,0,0,-0.1911,-0.1946,-0.1968,-0.2033,-0.2073,-0.2126,-0.2133,-0.2195,-0.2252,-0.2262,-0.2363,-0.2399,-0.244,-0.2522,-0.2562,-0.2541,-0.2642,-0.2636,-0.2643,-0.263,-0.2646,-0.2656,-0.2666,-0.2545,-0.2544,-0.2543,0,0,-0.1925,-0.1969,-0.2003,-0.2049,-0.212,-0.2157,-0.2183,-0.2253,-0.2302,-0.2393,-0.2416,-0.2483,-0.2572,-0.2608,-0.2636,-0.2729,-0.2694,-0.2754,-0.2795,-0.2814,-0.2822,-0.2829,-0.2785,-0.2788,-0.2762,-0.2762,-0.2762,0,-0.1931,-0.1979,-0.2022,-0.207,-0.2114,-0.2175,-0.2227,-0.2287,-0.2381,-0.2423,-0.2437,-0.2572,-0.2609,-0.2697,-0.2733,-0.2752,-0.2733,-0.2743,-0.2825,-0.2831,-0.2837,-0.279,-0.2792,-0.2766,-0.2766,-0.2765,-0.2765,0,-0.1961,-0.2018,-0.2044,-0.2126,-0.2181,-0.2236,-0.2318,-0.2392,-0.2458,-0.2509,-0.2619,-0.2672,-0.2742,-0.2778,-0.2788,-0.2863,-0.2824,-0.283,-0.2785,-0.2852,-0.2798,-0.2799,-0.2772,-0.2771,-0.2769,-0.2768,0,0,-0.1921,-0.2042,-0.2055,-0.2105,-0.2216,-0.2261,-0.2369,-0.2466,-0.2534,-0.2631,-0.2702,-0.2811,-0.283,-0.2862,-0.289,-0.2916,-0.2941,-0.2897,-0.2896,-0.2836,-0.2938,-0.2726,-0.2705,-0.2966,-0.2967,-0.2968,-0.2875,0,-0.1934,-0.2021,-0.2086,-0.2186,-0.2238,-0.2334,-0.2422,-0.2524,-0.2611,-0.2697,-0.2766,-0.2845,-0.2867,-0.2903,-0.2939,-0.2943,-0.295,-0.2962,-0.2896,-0.2893,-0.2684,-0.2702,-0.2972,-0.2875,-0.2875,-0.2875,-0.2875,0,-0.1934,-0.1996,-0.2088,-0.2217,-0.2249,-0.2326,-0.2467,-0.2551,-0.268,-0.2743,-0.2831,-0.2879,-0.2946,-0.2948,-0.298,-0.2988,-0.2967,-0.2959,-0.2955,-0.273,-0.2682,-0.2803,-0.2875,-0.2875,-0.2875,-0.2875,-0.2875,0,-0.1863,-0.1997,-0.2071,-0.2116,-0.2269,-0.234,-0.2424,-0.2566,-0.2635,-0.2762,-0.2811,-0.2903,-0.2937,-0.2956,-0.2953,-0.2972,-0.2946,-0.2966,-0.2747,-0.273,-0.2919,-0.2913,-0.2971,-0.2971,-0.2971,-0.2972,-0.2972,0,-0.183,-0.1893,-0.2052,-0.2088,-0.2183,-0.2304,-0.2408,-0.2508,-0.2634,-0.2682,-0.2818,-0.2848,-0.2946,-0.2951,-0.2943,-0.2818,-0.2935,-0.2731,-0.2695,-0.2948,-0.2946,-0.2917,-0.2912,-0.2968,-0.2969,-0.297,-0.297,0,-0.1735,-0.1841,-0.1931,-0.2096,-0.2151,-0.2215,-0.2377,-0.2435,-0.2577,-0.2638,-0.2673,-0.2805,-0.2789,-0.2838,-0.2838,-0.2765,-0.2697,-0.2627,-0.2846,-0.2828,-0.2466,-0.2467,-0.2356,-0.2348,-0.2341,-0.2335,-0.233,0,-0.169,-0.173,-0.1902,-0.1948,-0.2028,-0.2142,-0.2205,-0.2378,-0.2425,-0.2575,-0.2569,-0.2627,-0.2677,-0.2489,-0.2577,-0.2502,-0.2493,-0.2435,-0.2492,-0.2428,-0.2405,-0.2417,-0.2426,-0.2319,-0.2317,-0.2316,-0.2314,0,-0.1595,-0.1672,-0.1738,-0.1828,-0.1912,-0.1987,-0.2089,-0.2108,-0.2266,-0.2419,-0.2382,-0.2371,-0.2336,-0.2328,-0.2278,-0.2247,-0.2465,-0.2362,-0.2378,-0.2431,-0.2382,-0.2369,-0.2386,-0.229,-0.2293,-0.2295,-0.2297,0,-0.1518,-0.1537,-0.1626,-0.1687,-0.1778,-0.1794,-0.1876,-0.1912,-0.1979,-0.215,-0.2118,-0.2184,-0.2285,-0.2191,-0.2153,-0.2089,-0.2073,-0.2025,-0.2058,-0.2086,-0.2047,-0.1948,-0.1668,0,0,0,0,0,-0.1434,-0.1432,-0.1474,-0.1532,-0.1606,-0.1651,-0.1776,-0.186,-0.2014,-0.1914,-0.2012,-0.1966,-0.191,-0.1963,-0.1838,-0.204,-0.2088,-0.1889,-0.2054,-0.2156,-0.2184,-0.2166,0,0,0,0,0,0,-0.1378,-0.1414,-0.1419,-0.1376,-0.1376,-0.1437,-0.1504,-0.1609,-0.1575,-0.1734,-0.1711,-0.183,-0.1807,-0.1928,-0.1789,-0.1801,-0.186,-0.1943,-0.1937,-0.214,-0.2165,-0.2188,-0.2179,0,0,0,0,0]},{"header":{"parameterUnit":"m.s-1","parameterCategory":2,"la1":30.2991,"la2":30.254,"lo1":-89.0895,"lo2":-89.0444,"dy":0.0017,"dx":0.0017,"nx":28,"ny":28,"refTime":"2024-04-03T21:00:00:Z","depth":"4","parameterNumber":3,"parameterNumberName":"V-component_of_CURRENTS"},"data":[0,0,0,0,0,0,0,0,0,0,0,0,0,0,0,0,0,0,0,0,0,0,0,0,0,0,0,0,0,0,0,0,0,0,0,0,0,0,0,0,0,0,0,0,0,0,0,0,0,0,0,0,0,0,0,0,0,0,-0.0057,-0.0056,0,0.0007,0.0008,0.0009,0.0065,0.0066,0.0066,0.0067,0.0186,0.0189,0.0191,0,0,0,0,0,0,0,0,0,0,0,0,0,-0.0094,-0.0094,-0.0057,-0.0056,-0.0056,0.0007,0.0008,0.0009,0.0065,0.0066,0.0066,0.0067,0.0185,0.0188,0.0192,0,0,0,0,0,0,0,0,0,0,0,0,0,-0.0058,-0.0094,-0.0057,-0.0021,-0.0017,0.0007,0.0008,0.0009,0.0065,0.0066,0.0066,0.0067,0.0184,0.0188,0.0192,0.0201,0,0,0.0204,0.0206,0,0,0,0,0,0,0,0,-0.006,-0.0056,-0.0027,-0.0024,-0.0019,0.0028,0.0039,0.0076,0.0065,0.0035,0.0067,0.0068,0.0137,0.0145,0.0156,0.0207,0.0212,0.0205,0.0207,0.0209,0.021,0,0,0,0,0,0,0,-0.0063,-0.0059,-0.003,-0.0027,-0.0022,0.0004,0.001,0.0046,0.0083,0.0038,0.0041,0.0046,0.014,0.0152,0.0159,0.0214,0.0205,0.0208,0.0211,0.0212,0.0286,0.0285,0,0,0,0,0,0,-0.0076,-0.0061,-0.0032,-0.0029,-0.004,0.0004,0.0011,0.0013,0.0081,0.0092,0.0046,0.0049,0.0145,0.0155,0.0164,0.0174,0.0209,0.0213,0.0215,0.0286,0.0286,0.0285,0,0,0,0,0,0,-0.0077,-0.0074,-0.0035,-0.0044,-0.0038,0.0003,0.0006,0.0014,0.0028,0.0086,0.0098,0.0051,0.0146,0.0158,0.0191,0.018,0.0214,0.0218,0.0287,0.0286,0.0285,0.0198,0,0,0,0,0,0,-0.0079,-0.0075,-0.0081,-0.0045,-0.0038,-0.0029,0.0005,0.0014,0.0029,0.0034,0.0095,0.0107,0.0147,0.0184,0.0194,0.0186,0.0221,0.0287,0.0286,0.0286,0.0202,0.0195,0.0189,0,0,0,0,0,-0.008,-0.0092,-0.0081,-0.0078,-0.0046,-0.003,-0.0024,0.001,0.0028,0.0027,0.0069,0.0105,0.0186,0.0187,0.0199,0.0191,0.0288,0.0287,0.0286,0.0205,0.0196,0.0189,0,0,0,0,0,0,-0.011,-0.0086,-0.0074,-0.0078,-0.006,-0.0021,-0.002,0.0003,0.0035,0.0041,0.01,0.0114,0.0136,0.0176,0.0175,0.021,0.0243,0.0244,0.0177,0.017,0.0163,0.0151,0.0225,0,0,0,0,0,-0.0121,-0.0125,-0.0096,-0.0101,-0.0095,-0.0059,-0.0049,-0.0028,0.0005,0.002,0.0061,0.0106,0.014,0.0164,0.0198,0.022,0.0268,0.0224,0.0217,0.0211,0.021,0.0273,0.0272,0.0282,0.0282,0.0282,0,0,-0.0133,-0.0123,-0.0123,-0.0108,-0.0091,-0.0096,-0.0051,-0.0043,-0.0044,0.0028,0.0039,0.0082,0.0139,0.0159,0.0173,0.0193,0.0231,0.021,0.0204,0.0207,0.0272,0.0271,0.027,0.0281,0.0281,0.0281,0,0,-0.0166,-0.0152,-0.0168,-0.016,-0.0144,-0.0125,-0.0126,-0.0093,-0.0075,-0.006,-0.001,0.0027,0.0076,0.0117,0.0144,0.0125,0.019,0.0135,0.0099,0.016,0.0159,0.016,0.0208,0.0214,0.0137,0.0137,0.0137,0,-0.0183,-0.0199,-0.017,-0.0186,-0.019,-0.0144,-0.0166,-0.0142,-0.0103,-0.0089,-0.0069,0.0006,0.0056,0.0089,0.0085,0.0109,0.0153,0.0122,0.0151,0.0152,0.0154,0.0204,0.0211,0.0133,0.0133,0.0134,0.0134,0,-0.0224,-0.0242,-0.0252,-0.0261,-0.026,-0.027,-0.0242,-0.0235,-0.0209,-0.0174,-0.014,-0.0074,-0.0025,-0.0005,0.0037,0.0072,0.01,0.0129,0.0168,0.0148,0.0202,0.0211,0.0127,0.0128,0.013,0.0131,0,0,-0.0251,-0.0278,-0.0283,-0.0309,-0.0302,-0.031,-0.0317,-0.0303,-0.0304,-0.0253,-0.0239,-0.0174,-0.0124,-0.009,-0.0031,0.0028,0.0079,0.0082,0.0087,0.0124,0.0208,0.0186,0.0195,0.0117,0.0118,0.0119,0.0235,0,-0.0295,-0.0351,-0.0348,-0.0405,-0.0432,-0.0409,-0.0424,-0.0403,-0.0366,-0.0338,-0.0253,-0.0217,-0.0159,-0.0135,-0.0069,0.0038,0.0101,0.0044,0.0227,0.0232,0.0212,0.0204,0.0123,0.0242,0.0245,0.0246,0.0247,0,-0.0336,-0.0371,-0.0436,-0.0488,-0.0498,-0.0525,-0.0541,-0.0543,-0.0484,-0.0452,-0.0389,-0.0314,-0.0229,-0.0172,-0.0004,-0.0042,0.0076,0.0166,0.0173,0.0191,0.0228,0.0272,0.0265,0.0263,0.0262,0.0261,0.026,0,-0.0372,-0.0435,-0.0494,-0.051,-0.0554,-0.0583,-0.0602,-0.0575,-0.058,-0.0512,-0.0493,-0.0383,-0.0323,-0.0176,0.0008,0.0006,0.0207,0.0229,0.0322,0.0322,0.0346,0.0345,0.0363,0.0363,0.0362,0.0362,0.0362,0,-0.0415,-0.0465,-0.0521,-0.0554,-0.0634,-0.0638,-0.0694,-0.0688,-0.0666,-0.0661,-0.055,-0.0507,-0.0316,-0.0174,-0.001,0.0175,0.0195,0.0313,0.035,0.0305,0.0297,0.0352,0.0349,0.0366,0.0365,0.0365,0.0364,0,-0.0441,-0.0476,-0.0555,-0.0625,-0.0654,-0.0707,-0.0771,-0.0797,-0.0768,-0.0755,-0.0736,-0.0594,-0.0416,-0.0216,0.0033,0.014,0.0327,0.0401,0.0328,0.036,0.0404,0.0396,0.049,0.049,0.049,0.049,0.049,0,-0.0457,-0.0497,-0.0607,-0.0664,-0.0703,-0.078,-0.0832,-0.0847,-0.0859,-0.0799,-0.0783,-0.0622,-0.0503,-0.0168,0.0032,0.0318,0.037,0.0447,0.0429,0.039,0.0418,0.0409,0.04,0.0491,0.0491,0.0491,0.0491,0,-0.0483,-0.0524,-0.0588,-0.0707,-0.0787,-0.0872,-0.0934,-0.0953,-0.0947,-0.0927,-0.0797,-0.0622,-0.0418,-0.0167,0.0057,0.0267,0.0373,0.045,0.0451,0.0435,0.0393,0.0418,0.0409,0.0491,0.0491,0.0491,0.0491,0,-0.0496,-0.055,-0.0637,-0.0739,-0.0845,-0.0924,-0.0962,-0.0959,-0.0967,-0.0889,-0.0843,-0.0612,-0.0482,-0.019,0.0018,0.0208,0.0252,0.0301,0.031,0.0312,0.0219,0.0138,0.0188,0,0,0,0,0,-0.0499,-0.0558,-0.066,-0.0776,-0.0882,-0.0936,-0.101,-0.1027,-0.102,-0.0932,-0.0885,-0.0682,-0.0373,-0.0229,-0.0039,0.0003,0.0265,0.0226,0.032,0.0495,0.0494,0.0414,0,0,0,0,0,0,-0.0505,-0.0592,-0.0652,-0.0778,-0.0853,-0.0962,-0.1007,-0.1007,-0.0944,-0.0903,-0.0723,-0.0645,-0.0329,-0.0462,-0.0029,0.0024,0.0103,0.0373,0.0377,0.0495,0.0495,0.0494,0.0411,0,0,0,0,0]}]]